When you browse on this site, cookies collect data to enhance your experience and personalize the content and advertising you see.
Visit our Privacy Policy to learn more. By continuing to use the site, you agree to this use of cookies and data.
  • In Hungary
  • List of Countries
  • For 7 days
  • Water Temperature
  • Satellite Maps
  • Weather Map
  • News
  • Weather Widgets
  • user-avatar
    Login

    Hourly Weather Kapurthala

    Today, 20 July, Saturday

    Time Temperature Precipitation Wind Pressure Humidity
    00:00 +32°C° 0 mm 1 mps 733 mmHg 55%
    01:00 +32°C° 0 mm 1 mps 733 mmHg 56%
    02:00 +31°C° 0 mm 1 mps 733 mmHg 58%
    03:00 +31°C° 0 mm 1 mps 733 mmHg 59%
    04:00 +31°C° 0 mm 1 mps 733 mmHg 60%
    05:00 +30°C° 0 mm 1 mps 733 mmHg 61%
    06:00 +32°C° 0 mm 1 mps 733 mmHg 58%
    07:00 +34°C° 0 mm 2 mps 734 mmHg 54%
    08:00 +35°C° 0 mm 2 mps 735 mmHg 51%
    09:00 +37°C° 0 mm 2 mps 734 mmHg 47%
    10:00 +38°C° 0 mm 2 mps 734 mmHg 43%
    11:00 +39°C° 0 mm 2 mps 734 mmHg 39%
    12:00 +40°C° 0 mm 2 mps 734 mmHg 39%
    13:00 +40°C° 0 mm 2 mps 733 mmHg 38%
    14:00 +40°C° 0 mm 2 mps 733 mmHg 37%
    15:00 +40°C° 0 mm 1 mps 733 mmHg 38%
    16:00 +40°C° 0 mm 1 mps 733 mmHg 38%
    17:00 +37°C° 0 mm 0 mps 732 mmHg 38%
    18:00 +36°C° 0 mm 0 mps 732 mmHg 40%
    19:00 +37°C° 0 mm 1 mps 732 mmHg 43%
    20:00 +36°C° 0 mm 1 mps 733 mmHg 45%
    21:00 +33°C° 0 mm 0 mps 732 mmHg 46%
    22:00 +33°C° 0 mm 0 mps 732 mmHg 47%
    23:00 +32°C° 0 mm 0 mps 732 mmHg 49%

    Tomorrow, 21 July, Sunday

    Time Temperature Precipitation Wind Pressure Humidity
    00:00 +32°C° 0 mm 0 mps 732 mmHg 50%
    01:00 +31°C° 0 mm 0 mps 732 mmHg 51%
    02:00 +31°C° 0 mm 0 mps 732 mmHg 52%
    03:00 +33°C° 0 mm 1 mps 732 mmHg 53%
    04:00 +32°C° 0 mm 1 mps 732 mmHg 54%
    05:00 +32°C° 0 mm 1 mps 732 mmHg 55%
    06:00 +34°C° 0 mm 2 mps 732 mmHg 52%
    07:00 +36°C° 0 mm 2 mps 732 mmHg 50%
    08:00 +37°C° 0 mm 2 mps 733 mmHg 47%
    09:00 +39°C° 0 mm 2 mps 733 mmHg 43%
    10:00 +40°C° 0 mm 2 mps 733 mmHg 39%
    11:00 +42°C° 0 mm 2 mps 733 mmHg 35%
    12:00 +42°C° 0 mm 2 mps 732 mmHg 34%
    13:00 +42°C° 0 mm 2 mps 732 mmHg 33%
    14:00 +42°C° 0 mm 2 mps 732 mmHg 33%
    15:00 +42°C° 0 mm 1 mps 732 mmHg 33%
    16:00 +42°C° 0 mm 1 mps 731 mmHg 34%
    17:00 +38°C° 0 mm 0 mps 731 mmHg 35%
    18:00 +37°C° 0 mm 0 mps 731 mmHg 37%
    19:00 +36°C° 0 mm 0 mps 731 mmHg 39%
    20:00 +35°C° 0 mm 0 mps 731 mmHg 41%
    21:00 +34°C° 0 mm 0 mps 731 mmHg 42%
    22:00 +36°C° 0 mm 1 mps 731 mmHg 43%
    23:00 +35°C° 0 mm 1 mps 731 mmHg 44%

    Day after tomorrow, 22 July, Monday

    Time Temperature Precipitation Wind Pressure Humidity
    00:00 +35°C° 0 mm 1 mps 731 mmHg 45%
    01:00 +35°C° 0 mm 1 mps 731 mmHg 46%
    02:00 +34°C° 0 mm 1 mps 731 mmHg 47%
    03:00 +34°C° 0 mm 1 mps 731 mmHg 49%
    04:00 +33°C° 0 mm 1 mps 731 mmHg 50%
    05:00 +33°C° 0 mm 1 mps 730 mmHg 52%
    06:00 +35°C° 0 mm 2 mps 731 mmHg 49%
    07:00 +37°C° 0 mm 2 mps 731 mmHg 47%
    08:00 +38°C° 0 mm 3 mps 731 mmHg 44%
    09:00 +40°C° 0 mm 2 mps 731 mmHg 40%
    10:00 +41°C° 0 mm 2 mps 731 mmHg 36%
    11:00 +42°C° 0 mm 2 mps 731 mmHg 32%
    12:00 +43°C° 0 mm 2 mps 731 mmHg 31%
    13:00 +44°C° 0 mm 1 mps 731 mmHg 29%
    14:00 +41°C° 0 mm 0 mps 730 mmHg 28%
    15:00 +41°C° 0 mm 0 mps 730 mmHg 30%
    16:00 +40°C° 0 mm 0 mps 730 mmHg 32%
    17:00 +39°C° 0 mm 0 mps 729 mmHg 34%
    18:00 +41°C° 0 mm 1 mps 730 mmHg 35%
    19:00 +40°C° 0 mm 1 mps 730 mmHg 36%
    20:00 +39°C° 0 mm 1 mps 730 mmHg 38%
    21:00 +39°C° 0 mm 1 mps 730 mmHg 39%
    22:00 +37°C° 0 mm 1 mps 730 mmHg 41%
    23:00 +36°C° 0 mm 1 mps 730 mmHg 42%

    23 July, Tuesday

    Time Temperature Precipitation Wind Pressure Humidity
    00:00 +37°C° 0 mm 2 mps 730 mmHg 44%
    01:00 +36°C° 0 mm 2 mps 730 mmHg 45%
    02:00 +36°C° 0 mm 2 mps 729 mmHg 47%
    03:00 +35°C° 0.2 mm 2 mps 729 mmHg 49%
    04:00 +35°C° 0.2 mm 2 mps 729 mmHg 51%
    05:00 +34°C° 0.2 mm 1 mps 729 mmHg 54%
    06:00 +35°C° 0.2 mm 2 mps 730 mmHg 53%
    07:00 +36°C° 0.2 mm 3 mps 730 mmHg 52%
    08:00 +37°C° 0.2 mm 4 mps 731 mmHg 52%
    09:00 +38°C° 0 mm 4 mps 730 mmHg 48%
    10:00 +39°C° 0 mm 3 mps 730 mmHg 44%
    11:00 +42°C° 0 mm 3 mps 730 mmHg 40%
    12:00 +42°C° 0 mm 2 mps 730 mmHg 36%
    13:00 +45°C° 0 mm 2 mps 730 mmHg 32%
    14:00 +45°C° 0 mm 1 mps 729 mmHg 27%
    15:00 +45°C° 0 mm 1 mps 729 mmHg 27%
    16:00 +46°C° 0 mm 2 mps 728 mmHg 27%
    17:00 +46°C° 0 mm 2 mps 728 mmHg 27%
    18:00 +43°C° 0 mm 2 mps 728 mmHg 31%
    19:00 +42°C° 0 mm 3 mps 728 mmHg 35%
    20:00 +39°C° 0 mm 3 mps 728 mmHg 40%
    21:00 +38°C° 0 mm 3 mps 728 mmHg 42%
    22:00 +38°C° 0 mm 3 mps 728 mmHg 44%
    23:00 +37°C° 0 mm 3 mps 728 mmHg 46%

    24 July, Wednesday

    Time Temperature Precipitation Wind Pressure Humidity
    00:00 +37°C° 0 mm 4 mps 728 mmHg 46%
    01:00 +37°C° 0 mm 4 mps 728 mmHg 47%
    02:00 +37°C° 0 mm 4 mps 728 mmHg 47%
    03:00 +36°C° 0 mm 5 mps 728 mmHg 49%
    04:00 +36°C° 0 mm 5 mps 728 mmHg 51%
    05:00 +36°C° 0 mm 5 mps 728 mmHg 53%
    06:00 +36°C° 0 mm 5 mps 729 mmHg 56%
    07:00 +36°C° 0 mm 5 mps 729 mmHg 59%
    08:00 +36°C° 0 mm 6 mps 729 mmHg 61%
    09:00 +37°C° 0 mm 5 mps 729 mmHg 56%
    10:00 +40°C° 0 mm 5 mps 729 mmHg 51%
    11:00 +41°C° 0 mm 5 mps 729 mmHg 46%
    12:00 +43°C° 0 mm 4 mps 729 mmHg 41%
    13:00 +45°C° 0 mm 3 mps 728 mmHg 35%
    14:00 +47°C° 0 mm 3 mps 728 mmHg 30%
    15:00 +47°C° 0 mm 4 mps 727 mmHg 32%
    16:00 +45°C° 0 mm 4 mps 727 mmHg 34%
    17:00 +46°C° 0 mm 5 mps 727 mmHg 36%
    18:00 +42°C° 0 mm 6 mps 727 mmHg 45%
    19:00 +39°C° 0 mm 7 mps 727 mmHg 54%
    20:00 +36°C° 0 mm 7 mps 727 mmHg 63%
    21:00 +35°C° 0 mm 7 mps 728 mmHg 65%
    22:00 +34°C° 0 mm 7 mps 728 mmHg 66%
    23:00 +34°C° 0 mm 8 mps 728 mmHg 68%

    25 July, Thursday

    Time Temperature Precipitation Wind Pressure Humidity
    00:00 +33°C° 0 mm 7 mps 729 mmHg 67%
    01:00 +33°C° 0 mm 7 mps 729 mmHg 66%
    02:00 +33°C° 0 mm 7 mps 729 mmHg 66%
    03:00 +32°C° 0.2 mm 7 mps 729 mmHg 67%
    04:00 +32°C° 0.2 mm 7 mps 729 mmHg 69%
    05:00 +32°C° 0.2 mm 6 mps 729 mmHg 71%
    06:00 +32°C° 0.1 mm 7 mps 730 mmHg 71%
    07:00 +32°C° 0.1 mm 7 mps 730 mmHg 70%
    08:00 +33°C° 0.1 mm 7 mps 730 mmHg 70%
    09:00 +34°C° 0 mm 7 mps 731 mmHg 66%
    10:00 +35°C° 0 mm 6 mps 731 mmHg 62%
    11:00 +36°C° 0 mm 6 mps 731 mmHg 59%
    12:00 +39°C° 0 mm 5 mps 730 mmHg 54%
    13:00 +40°C° 0 mm 5 mps 730 mmHg 49%
    14:00 +42°C° 0 mm 4 mps 729 mmHg 44%
    15:00 +42°C° 0 mm 4 mps 729 mmHg 43%
    16:00 +42°C° 0 mm 3 mps 728 mmHg 42%
    17:00 +42°C° 0 mm 3 mps 728 mmHg 40%
    18:00 +41°C° 0 mm 4 mps 728 mmHg 46%
    19:00 +38°C° 0 mm 4 mps 728 mmHg 52%
    20:00 +36°C° 0 mm 5 mps 728 mmHg 58%
    21:00 +35°C° 0.1 mm 6 mps 728 mmHg 63%
    22:00 +34°C° 0.1 mm 6 mps 729 mmHg 68%
    23:00 +33°C° 0.1 mm 7 mps 729 mmHg 72%
    Show more